Location: Plainartige
(45.6866°N, 1.7993°E)
Time: 09:33:18
(UTC+00:00)

Tiros 1 - Pass Details

Date: 03 June 2022
Orbit: 629 x 663 km, 48.4° (Epoch: 04 July)

Event Time Altitude Azimuth Distance (km) Brightness Sun altitude
Rises 20:11:30 0° 199° (SSW) 2,904 10.3 -5.7°
Reaches altitude 10° 20:14:22 10° 182° (S) 1,998 9.3 -6.1°
Maximum altitude 20:17:34 19° 137° (SE) 1,504 8.4 -6.5°
Drops below altitude 10° 20:20:47 10° 93° (E) 2,005 9.2 -6.9°
Sets 20:23:39 0° 75° (ENE) 2,917 10.2 -7.3°
